QPF
0.00 0.00 0.00 0.00 0.00 0.00 0.00 0.00 0.00 0.00 0.00 0.00 0.00 0.00 0.01 0.01 0.01 0.01 0.01 0.01 0.00 0.01 0.01 0.00 0.00 0.01 0.01 0.01 0.01 0.01 0.01 0.01 0.01 0.01 0.02 0.02 0.01 0.01 0.02 0.02 0.04 0.07 0.07 0.07
0.00 0.00 0.00 0.00 0.00 0.00 0.00 0.00 0.00 0.00 0.00 0.00 0.00 0.00 0.01 0.01 0.01 0.01 0.01 0.01 0.01 0.01 0.00 0.00 0.00 0.01 0.01 0.01 0.01 0.01 0.01 0.01 0.01 0.01 0.01 0.01 0.01 0.02 0.03 0.04 0.05 0.06 0.08 0.09
0.00 0.00 0.00 0.00 0.00 0.00 0.00 0.00 0.00 0.00 0.00 0.00 0.00 0.00 0.01 0.01 0.01 0.01 0.01 0.01 0.01 0.01 0.00 0.00 0.01 0.01 0.02 0.02 0.02 0.01 0.01 0.01 0.02 0.01 0.01 0.01 0.02 0.03 0.03 0.03 0.03 0.04 0.07 0.08
0.00 0.00 0.00 0.00 0.01 0.01 0.00 0.01 0.00 0.00 0.00 0.00 0.01 0.01 0.01 0.02 0.02 0.01 0.01 0.01 0.01 0.01 0.00 0.01 0.01 0.02 0.03 0.02 0.02 0.02 0.02 0.02 0.02 0.01 0.02 0.03 0.03 0.04 0.03 0.03 0.03 0.04 0.04 0.04
0.00 0.00 0.00 0.00 0.00 0.00 0.00 0.00 0.01 0.01 0.01 0.01 0.01 0.01 0.01 0.01 0.02 0.02 0.01 0.01 0.01 0.01 0.01 0.02 0.02 0.02 0.03 0.03 0.03 0.02 0.02 0.02 0.02 0.02 0.03 0.04 0.05 0.04 0.04 0.04 0.03 0.03 0.02 0.02
0.00 0.00 0.00 0.00 0.00 0.00 0.00 0.00 0.00 0.01 0.01 0.01 0.01 0.01 0.00 0.01 0.01 0.02 0.01 0.02 0.02 0.02 0.02 0.03 0.03 0.03 0.03 0.03 0.03 0.02 0.02 0.02 0.02 0.03 0.05 0.07 0.06 0.05 0.03 0.03 0.02 0.01 0.01 0.01
0.00 0.00 0.00 0.00 0.00 0.01 0.01 0.02 0.01 0.01 0.01 0.01 0.00 0.00 0.01 0.01 0.01 0.01 0.02 0.02 0.02 0.03 0.03 0.03 0.03 0.02 0.03 0.04 0.03 0.03 0.04 0.04 0.04 0.05 0.06 0.06 0.06 0.05 0.03 0.02 0.01 0.01 0.02 0.03
0.00 0.00 0.00 0.00 0.01 0.01 0.01 0.01 0.01 0.01 0.01 0.01 0.01 0.00 0.01 0.01 0.01 0.02 0.02 0.02 0.02 0.02 0.03 0.03 0.03 0.03 0.03 0.04 0.05 0.05 0.05 0.04 0.05 0.06 0.06 0.06 0.05 0.04 0.03 0.02 0.01 0.02 0.02 0.02
0.00 0.00 0.01 0.01 0.01 0.01 0.01 0.01 0.01 0.01 0.01 0.01 0.00 0.00 0.01 0.01 0.01 0.02 0.02 0.01 0.02 0.02 0.02 0.03 0.03 0.04 0.05 0.04 0.05 0.05 0.05 0.05 0.06 0.05 0.05 0.05 0.04 0.04 0.03 0.03 0.02 0.02 0.02 0.02
0.00 0.00 0.01 0.01 0.01 0.01 0.01 0.01 0.01 0.00 0.00 0.00 0.01 0.01 0.00 0.01 0.01 0.02 0.03 0.02 0.02 0.02 0.02 0.05 0.05 0.06 0.05 0.05 0.05 0.04 0.04 0.04 0.05 0.04 0.04 0.04 0.04 0.04 0.04 0.03 0.02 0.02 0.02 0.02
0.01 0.01 0.01 0.01 0.01 0.01 0.01 0.01 0.01 0.01 0.01 0.01 0.02 0.01 0.01 0.01 0.02 0.03 0.06 0.04 0.02 0.02 0.03 0.07 0.09 0.08 0.06 0.05 0.06 0.06 0.06 0.06 0.05 0.04 0.03 0.04 0.04 0.05 0.06 0.07 0.06 0.05 0.04 0.03
0.01 0.01 0.02 0.02 0.02 0.01 0.01 0.02 0.03 0.02 0.03 0.03 0.02 0.01 0.01 0.02 0.03 0.05 0.05 0.04 0.03 0.03 0.04 0.06 0.07 0.08 0.07 0.06 0.05 0.05 0.05 0.05 0.04 0.03 0.02 0.03 0.05 0.06 0.07 0.07 0.07 0.07 0.06 0.05
0.01 0.01 0.02 0.02 0.01 0.01 0.02 0.03 0.03 0.03 0.04 0.03 0.02 0.01 0.02 0.02 0.03 0.06 0.07 0.08 0.08 0.06 0.06 0.06 0.06 0.07 0.06 0.06 0.05 0.05 0.04 0.04 0.03 0.02 0.02 0.01 0.02 0.02 0.03 0.04 0.04 0.04 0.03 0.03
0.00 0.01 0.01 0.01 0.01 0.02 0.02 0.02 0.02 0.03 0.03 0.03 0.02 0.01 0.01 0.02 0.03 0.06 0.08 0.10 0.10 0.09 0.08 0.07 0.06 0.06 0.05 0.04 0.04 0.03 0.02 0.02 0.02 0.01 0.01 0.01 0.01 0.01 0.01 0.02 0.02 0.02 0.02 0.02
0.01 0.01 0.01 0.01 0.02 0.02 0.02 0.02 0.02 0.03 0.03 0.03 0.02 0.02 0.01 0.01 0.03 0.04 0.04 0.04 0.04 0.05 0.05 0.05 0.04 0.04 0.04 0.03 0.02 0.02 0.01 0.01 0.01 0.01 0.01 0.01 0.01 0.01 0.01 0.01 0.02 0.02 0.02 0.02
0.01 0.02 0.02 0.03 0.02 0.02 0.02 0.02 0.03 0.04 0.03 0.04 0.03 0.02 0.01 0.01 0.02 0.03 0.02 0.02 0.02 0.03 0.04 0.04 0.03 0.02 0.02 0.01 0.01 0.01 0.01 0.00 0.00 0.00 0.00 0.00 0.01 0.01 0.01 0.01 0.01 0.01 0.01 0.01
0.01 0.01 0.02 0.02 0.01 0.01 0.01 0.01 0.02 0.03 0.03 0.04 0.03 0.02 0.02 0.01 0.01 0.01 0.01 0.01 0.01 0.01 0.01 0.02 0.01 0.01 0.01 0.01 0.00 0.00 0.00 0.00 0.00 0.00 0.00 0.00 0.01 0.01 0.01 0.01 0.01 0.01 0.02 0.02
0.02 0.02 0.02 0.02 0.02 0.01 0.02 0.02 0.02 0.02 0.02 0.04 0.04 0.03 0.02 0.02 0.01 0.01 0.01 0.01 0.01 0.01 0.01 0.01 0.01 0.01 0.00 0.00 0.00 0.00 0.00 0.00 0.00 0.00 0.00 0.00 0.01 0.01 0.01 0.01 0.01 0.02 0.02 0.02
0.03 0.03 0.02 0.01 0.02 0.02 0.02 0.02 0.02 0.02 0.02 0.03 0.03 0.02 0.03 0.03 0.03 0.02 0.02 0.02 0.01 0.01 0.01 0.01 0.01 0.00 0.00 0.00 0.00 0.00 0.00 0.00 0.00 0.00 0.00 0.00 0.00 0.01 0.01 0.01 0.02 0.02 0.02 0.02
0.02 0.02 0.01 0.01 0.02 0.02 0.01 0.02 0.02 0.02 0.03 0.03 0.03 0.03 0.03 0.03 0.03 0.03 0.02 0.01 0.01 0.01 0.01 0.01 0.01 0.00 0.00 0.00 0.00 0.00 0.00 0.00 0.01 0.01 0.01 0.00 0.00 0.00 0.00 0.00 0.01 0.02 0.03 0.03
0.03 0.03 0.02 0.01 0.02 0.01 0.01 0.01 0.01 0.02 0.03 0.02 0.02 0.02 0.03 0.04 0.04 0.05 0.05 0.03 0.02 0.01 0.01 0.01 0.01 0.00 0.00 0.00 0.01 0.01 0.01 0.01 0.01 0.02 0.02 0.01 0.01 0.00 0.01 0.01 0.02 0.04 0.05 0.03
0.06 0.04 0.02 0.01 0.01 0.01 0.01 0.01 0.01 0.01 0.02 0.03 0.03 0.02 0.03 0.05 0.05 0.04 0.05 0.05 0.03 0.02 0.01 0.01 0.01 0.01 0.01 0.01 0.02 0.02 0.01 0.01 0.01 0.01 0.02 0.02 0.01 0.01 0.01 0.02 0.02 0.03 0.03 0.02
0.05 0.03 0.01 0.01 0.01 0.01 0.01 0.01 0.01 0.01 0.02 0.03 0.04 0.04 0.03 0.04 0.04 0.03 0.03 0.04 0.03 0.03 0.02 0.02 0.02 0.02 0.02 0.02 0.02 0.02 0.01 0.01 0.01 0.01 0.02 0.01 0.01 0.01 0.01 0.02 0.02 0.02 0.02 0.01
0.03 0.03 0.02 0.02 0.02 0.02 0.01 0.01 0.01 0.01 0.02 0.04 0.04 0.05 0.05 0.05 0.05 0.05 0.04 0.06 0.07 0.05 0.03 0.03 0.02 0.02 0.02 0.02 0.02 0.02 0.02 0.02 0.02 0.01 0.01 0.01 0.01 0.01 0.01 0.02 0.02 0.02 0.01 0.01
0.03 0.03 0.03 0.03 0.03 0.02 0.01 0.01 0.01 0.01 0.01 0.02 0.04 0.04 0.05 0.05 0.05 0.06 0.06 0.05 0.06 0.06 0.05 0.04 0.04 0.04 0.03 0.02 0.02 0.01 0.01 0.01 0.01 0.01 0.01 0.01 0.01 0.01 0.01 0.02 0.02 0.02 0.02 0.01
0.03 0.03 0.04 0.04 0.02 0.01 0.01 0.01 0.00 0.01 0.01 0.01 0.02 0.03 0.03 0.04 0.05 0.05 0.05 0.05 0.06 0.07 0.07 0.07 0.07 0.06 0.04 0.02 0.01 0.01 0.01 0.01 0.01 0.01 0.01 0.01 0.01 0.01 0.02 0.02 0.02 0.01 0.01 0.01
0.04 0.04 0.05 0.05 0.03 0.02 0.01 0.01 0.01 0.01 0.02 0.02 0.02 0.03 0.03 0.04 0.03 0.03 0.03 0.04 0.05 0.06 0.06 0.07 0.07 0.06 0.03 0.01 0.01 0.01 0.00 0.00 0.01 0.01 0.01 0.01 0.01 0.01 0.01 0.01 0.01 0.01 0.01 0.01
MSLP
1014.91 1015.29 1015.69 1016.09 1016.42 1016.64 1016.69 1016.56 1016.22 1015.71 1015.09 1014.42 1013.79 1013.28 1012.95 1012.81 1012.87 1013.10 1013.44 1013.83 1014.20 1014.50 1014.70 1014.79 1014.78 1014.69 1014.57 1014.42 1014.27 1014.13 1013.99 1013.85 1013.69 1013.51 1013.30 1013.07 1012.82 1012.57 1012.35 1012.14 1011.96 1011.81 1011.70 1011.60
1015.22 1015.48 1015.71 1015.91 1016.04 1016.07 1015.99 1015.79 1015.46 1015.03 1014.55 1014.07 1013.63 1013.29 1013.09 1013.02 1013.08 1013.25 1013.49 1013.75 1013.99 1014.19 1014.32 1014.39 1014.41 1014.38 1014.33 1014.27 1014.19 1014.09 1013.98 1013.83 1013.64 1013.41 1013.15 1012.85 1012.55 1012.26 1011.98 1011.75 1011.54 1011.37 1011.22 1011.10
1015.57 1015.67 1015.72 1015.72 1015.67 1015.55 1015.36 1015.12 1014.83 1014.51 1014.18 1013.88 1013.64 1013.46 1013.37 1013.36 1013.41 1013.51 1013.63 1013.76 1013.87 1013.95 1014.00 1014.04 1014.06 1014.07 1014.08 1014.08 1014.06 1014.01 1013.91 1013.75 1013.53 1013.25 1012.93 1012.58 1012.23 1011.89 1011.57 1011.30 1011.07 1010.87 1010.70 1010.56
1015.94 1015.87 1015.74 1015.55 1015.32 1015.07 1014.81 1014.55 1014.31 1014.10 1013.93 1013.81 1013.74 1013.72 1013.73 1013.77 1013.81 1013.84 1013.86 1013.86 1013.84 1013.81 1013.79 1013.77 1013.78 1013.81 1013.85 1013.89 1013.90 1013.86 1013.76 1013.58 1013.33 1013.00 1012.62 1012.21 1011.81 1011.43 1011.08 1010.78 1010.52 1010.30 1010.11 1009.94
1016.31 1016.05 1015.73 1015.37 1014.99 1014.63 1014.31 1014.06 1013.88 1013.77 1013.75 1013.79 1013.87 1013.97 1014.08 1014.16 1014.20 1014.19 1014.13 1014.03 1013.91 1013.79 1013.69 1013.63 1013.61 1013.64 1013.68 1013.72 1013.73 1013.69 1013.56 1013.35 1013.04 1012.65 1012.22 1011.77 1011.31 1010.89 1010.51 1010.18 1009.90 1009.66 1009.45 1009.25
1016.59 1016.15 1015.65 1015.15 1014.65 1014.22 1013.87 1013.63 1013.51 1013.50 1013.59 1013.76 1013.97 1014.19 1014.37 1014.50 1014.55 1014.52 1014.41 1014.25 1014.06 1013.88 1013.73 1013.62 1013.57 1013.57 1013.59 1013.61 1013.59 1013.51 1013.33 1013.07 1012.70 1012.26 1011.77 1011.27 1010.77 1010.31 1009.91 1009.55 1009.25 1008.98 1008.75 1008.53
1016.70 1016.11 1015.49 1014.87 1014.31 1013.84 1013.49 1013.27 1013.21 1013.28 1013.47 1013.74 1014.04 1014.34 1014.58 1014.75 1014.81 1014.78 1014.66 1014.47 1014.26 1014.05 1013.86 1013.73 1013.65 1013.61 1013.60 1013.57 1013.51 1013.36 1013.13 1012.79 1012.37 1011.88 1011.34 1010.79 1010.26 1009.77 1009.33 1008.96 1008.63 1008.35 1008.09 1007.85
1016.59 1015.90 1015.20 1014.54 1013.96 1013.49 1013.17 1013.01 1013.01 1013.15 1013.40 1013.73 1014.09 1014.43 1014.72 1014.91 1015.00 1014.97 1014.86 1014.68 1014.47 1014.25 1014.06 1013.91 1013.81 1013.74 1013.68 1013.60 1013.47 1013.26 1012.97 1012.57 1012.09 1011.55 1010.98 1010.40 1009.85 1009.34 1008.88 1008.49 1008.14 1007.83 1007.55 1007.28
1016.26 1015.53 1014.83 1014.19 1013.65 1013.24 1012.98 1012.88 1012.94 1013.13 1013.43 1013.79 1014.17 1014.52 1014.82 1015.02 1015.11 1015.11 1015.01 1014.85 1014.66 1014.46 1014.28 1014.13 1014.01 1013.91 1013.80 1013.67 1013.48 1013.21 1012.86 1012.43 1011.91 1011.34 1010.75 1010.16 1009.59 1009.07 1008.61 1008.20 1007.83 1007.50 1007.19 1006.90
1015.75 1015.06 1014.42 1013.85 1013.41 1013.10 1012.94 1012.92 1013.04 1013.27 1013.59 1013.95 1014.31 1014.65 1014.92 1015.11 1015.20 1015.21 1015.13 1014.99 1014.82 1014.65 1014.48 1014.33 1014.20 1014.07 1013.93 1013.75 1013.51 1013.20 1012.82 1012.35 1011.83 1011.25 1010.66 1010.08 1009.53 1009.01 1008.54 1008.12 1007.74 1007.39 1007.05 1006.74
1015.17 1014.56 1014.04 1013.61 1013.30 1013.12 1013.07 1013.14 1013.32 1013.58 1013.89 1014.23 1014.55 1014.84 1015.06 1015.21 1015.28 1015.27 1015.20 1015.08 1014.94 1014.78 1014.63 1014.48 1014.34 1014.19 1014.02 1013.81 1013.54 1013.21 1012.81 1012.34 1011.83 1011.27 1010.71 1010.16 1009.63 1009.13 1008.67 1008.25 1007.86 1007.49 1007.13 1006.79
1014.61 1014.14 1013.77 1013.50 1013.35 1013.31 1013.38 1013.54 1013.76 1014.03 1014.32 1014.61 1014.87 1015.08 1015.24 1015.33 1015.36 1015.33 1015.25 1015.14 1015.00 1014.86 1014.71 1014.57 1014.42 1014.25 1014.06 1013.83 1013.55 1013.21 1012.82 1012.37 1011.89 1011.38 1010.87 1010.35 1009.87 1009.40 1008.95 1008.54 1008.14 1007.75 1007.38 1007.02
1014.20 1013.88 1013.66 1013.55 1013.55 1013.65 1013.82 1014.04 1014.30 1014.56 1014.81 1015.04 1015.22 1015.35 1015.43 1015.46 1015.43 1015.37 1015.27 1015.16 1015.03 1014.89 1014.75 1014.60 1014.44 1014.27 1014.06 1013.82 1013.54 1013.22 1012.85 1012.44 1012.01 1011.55 1011.09 1010.63 1010.19 1009.75 1009.33 1008.93 1008.53 1008.13 1007.74 1007.36
1014.01 1013.81 1013.73 1013.75 1013.88 1014.07 1014.32 1014.59 1014.85 1015.09 1015.29 1015.44 1015.54 1015.59 1015.59 1015.55 1015.48 1015.38 1015.27 1015.14 1015.01 1014.87 1014.74 1014.59 1014.43 1014.25 1014.04 1013.81 1013.53 1013.23 1012.90 1012.54 1012.16 1011.76 1011.36 1010.96 1010.56 1010.16 1009.76 1009.36 1008.96 1008.55 1008.15 1007.75
1014.03 1013.93 1013.95 1014.07 1014.28 1014.54 1014.82 1015.09 1015.34 1015.53 1015.67 1015.75 1015.78 1015.75 1015.68 1015.59 1015.47 1015.35 1015.22 1015.09 1014.97 1014.84 1014.71 1014.57 1014.41 1014.23 1014.03 1013.81 1013.56 1013.29 1012.99 1012.68 1012.35 1012.02 1011.67 1011.31 1010.95 1010.58 1010.19 1009.80 1009.39 1008.97 1008.55 1008.14
1014.24 1014.21 1014.28 1014.45 1014.69 1014.97 1015.25 1015.50 1015.71 1015.85 1015.92 1015.93 1015.89 1015.80 1015.68 1015.55 1015.41 1015.27 1015.14 1015.03 1014.91 1014.80 1014.68 1014.55 1014.41 1014.25 1014.07 1013.87 1013.65 1013.41 1013.16 1012.89 1012.61 1012.32 1012.01 1011.69 1011.35 1010.99 1010.61 1010.21 1009.80 1009.37 1008.94 1008.51
1014.56 1014.55 1014.65 1014.83 1015.07 1015.33 1015.57 1015.78 1015.93 1016.01 1016.02 1015.97 1015.87 1015.73 1015.58 1015.43 1015.28 1015.15 1015.04 1014.94 1014.85 1014.77 1014.68 1014.58 1014.46 1014.33 1014.18 1014.01 1013.82 1013.61 1013.40 1013.17 1012.92 1012.66 1012.38 1012.08 1011.75 1011.39 1011.01 1010.60 1010.17 1009.73 1009.28 1008.84
1014.91 1014.90 1015.00 1015.16 1015.37 1015.59 1015.79 1015.94 1016.03 1016.05 1016.01 1015.90 1015.76 1015.59 1015.43 1015.27 1015.13 1015.01 1014.93 1014.86 1014.81 1014.76 1014.71 1014.65 1014.57 1014.47 1014.35 1014.22 1014.07 1013.89 1013.71 1013.50 1013.28 1013.04 1012.77 1012.46 1012.13 1011.77 1011.37 1010.94 1010.49 1010.03 1009.57 1009.11
1015.22 1015.21 1015.29 1015.43 1015.61 1015.78 1015.93 1016.02 1016.06 1016.02 1015.93 1015.79 1015.61 1015.43 1015.25 1015.10 1014.98 1014.89 1014.84 1014.81 1014.80 1014.80 1014.79 1014.77 1014.74 1014.68 1014.61 1014.50 1014.37 1014.23 1014.06 1013.87 1013.65 1013.41 1013.13 1012.82 1012.47 1012.09 1011.67 1011.22 1010.75 1010.27 1009.78 1009.31
1015.45 1015.44 1015.51 1015.64 1015.79 1015.93 1016.03 1016.08 1016.06 1015.99 1015.86 1015.69 1015.50 1015.31 1015.13 1014.99 1014.89 1014.83 1014.81 1014.82 1014.85 1014.89 1014.93 1014.96 1014.96 1014.94 1014.89 1014.82 1014.71 1014.58 1014.42 1014.23 1014.01 1013.75 1013.45 1013.12 1012.74 1012.33 1011.88 1011.41 1010.91 1010.41 1009.91 1009.42
1015.61 1015.61 1015.69 1015.81 1015.95 1016.06 1016.13 1016.15 1016.11 1016.00 1015.85 1015.66 1015.46 1015.27 1015.10 1014.97 1014.89 1014.85 1014.86 1014.90 1014.97 1015.05 1015.13 1015.19 1015.23 1015.24 1015.21 1015.15 1015.06 1014.93 1014.76 1014.55 1014.31 1014.02 1013.70 1013.33 1012.92 1012.48 1012.00 1011.51 1010.99 1010.48 1009.96 1009.46
1015.73 1015.77 1015.86 1015.99 1016.12 1016.23 1016.29 1016.29 1016.22 1016.10 1015.93 1015.73 1015.53 1015.33 1015.17 1015.05 1014.98 1014.97 1015.00 1015.07 1015.17 1015.28 1015.38 1015.47 1015.53 1015.56 1015.54 1015.49 1015.38 1015.24 1015.05 1014.81 1014.53 1014.21 1013.85 1013.44 1013.00 1012.53 1012.03 1011.52 1010.99 1010.47 1009.94 1009.43
1015.85 1015.93 1016.05 1016.20 1016.33 1016.43 1016.49 1016.48 1016.40 1016.27 1016.09 1015.89 1015.68 1015.49 1015.34 1015.23 1015.18 1015.19 1015.24 1015.33 1015.45 1015.58 1015.70 1015.80 1015.87 1015.90 1015.88 1015.81 1015.69 1015.51 1015.29 1015.01 1014.69 1014.32 1013.92 1013.47 1013.00 1012.51 1011.99 1011.47 1010.94 1010.41 1009.88 1009.35
1016.02 1016.13 1016.28 1016.44 1016.58 1016.68 1016.73 1016.71 1016.63 1016.49 1016.31 1016.11 1015.91 1015.73 1015.59 1015.49 1015.46 1015.48 1015.55 1015.66 1015.80 1015.94 1016.07 1016.18 1016.25 1016.27 1016.23 1016.13 1015.98 1015.76 1015.49 1015.17 1014.80 1014.39 1013.94 1013.47 1012.97 1012.46 1011.93 1011.41 1010.88 1010.35 1009.82 1009.29
1016.24 1016.37 1016.54 1016.71 1016.85 1016.95 1016.99 1016.96 1016.87 1016.73 1016.55 1016.35 1016.16 1016.00 1015.87 1015.80 1015.78 1015.83 1015.92 1016.05 1016.20 1016.35 1016.49 1016.59 1016.65 1016.65 1016.59 1016.46 1016.27 1016.01 1015.69 1015.31 1014.90 1014.45 1013.97 1013.47 1012.95 1012.43 1011.91 1011.38 1010.85 1010.33 1009.81 1009.27
1016.49 1016.64 1016.81 1016.97 1017.11 1017.19 1017.22 1017.18 1017.09 1016.94 1016.77 1016.58 1016.41 1016.27 1016.17 1016.12 1016.13 1016.20 1016.32 1016.47 1016.63 1016.79 1016.93 1017.03 1017.07 1017.05 1016.96 1016.79 1016.55 1016.25 1015.89 1015.48 1015.03 1014.54 1014.04 1013.52 1012.99 1012.47 1011.95 1011.43 1010.91 1010.39 1009.87 1009.33
1016.74 1016.90 1017.06 1017.21 1017.32 1017.39 1017.39 1017.34 1017.24 1017.10 1016.94 1016.77 1016.62 1016.51 1016.44 1016.43 1016.48 1016.58 1016.72 1016.89 1017.07 1017.23 1017.37 1017.45 1017.48 1017.43 1017.31 1017.11 1016.84 1016.50 1016.11 1015.67 1015.19 1014.69 1014.17 1013.64 1013.12 1012.60 1012.08 1011.57 1011.05 1010.54 1010.01 1009.45
Thickness
5762 5768 5768 5768 5768 5765 5760 5754 5745 5751 5752 5764 5769 5770 5769 5768 5767 5764 5762 5761 5760 5758 5756 5754 5752 5749 5746 5743 5740 5736 5731 5727 5723 5720 5717 5714 5712 5710 5708 5706 5705 5704 5702 5700
5755 5763 5763 5760 5764 5763 5761 5759 5753 5753 5754 5768 5769 5767 5764 5762 5762 5759 5758 5757 5756 5754 5751 5749 5746 5743 5740 5737 5734 5730 5726 5722 5718 5714 5710 5708 5706 5704 5702 5700 5698 5697 5695 5693
5734 5748 5752 5742 5757 5758 5757 5758 5755 5748 5757 5764 5760 5760 5760 5759 5758 5755 5754 5753 5751 5749 5747 5744 5741 5738 5734 5731 5728 5724 5720 5716 5712 5708 5704 5701 5700 5697 5695 5693 5692 5689 5688 5686
5721 5732 5720 5744 5764 5763 5757 5756 5757 5758 5759 5760 5759 5759 5758 5757 5755 5752 5751 5748 5747 5745 5743 5740 5738 5734 5730 5726 5722 5717 5713 5710 5706 5702 5699 5696 5693 5691 5689 5686 5684 5682 5680 5677
5707 5709 5719 5741 5756 5756 5749 5746 5756 5754 5754 5754 5755 5752 5749 5753 5752 5749 5747 5746 5743 5741 5738 5735 5733 5730 5725 5720 5715 5711 5707 5703 5700 5697 5693 5690 5687 5684 5682 5679 5677 5674 5672 5670
5702 5705 5704 5731 5753 5759 5750 5735 5752 5751 5748 5747 5745 5734 5739 5747 5746 5743 5742 5740 5737 5735 5733 5729 5726 5723 5718 5713 5709 5705 5701 5698 5695 5691 5687 5684 5680 5677 5675 5673 5670 5667 5665 5663
5698 5700 5711 5735 5747 5749 5725 5729 5747 5747 5745 5742 5739 5739 5742 5742 5739 5736 5734 5732 5731 5728 5725 5722 5719 5715 5710 5706 5702 5699 5696 5692 5689 5685 5682 5678 5674 5671 5668 5665 5662 5659 5657 5655
5690 5692 5703 5734 5736 5729 5729 5739 5741 5740 5739 5737 5736 5736 5736 5734 5730 5728 5725 5723 5722 5719 5715 5714 5712 5708 5703 5699 5696 5693 5689 5685 5681 5679 5676 5673 5667 5663 5660 5657 5653 5650 5648 5646
5694 5700 5716 5723 5727 5731 5731 5730 5733 5732 5733 5731 5728 5727 5726 5723 5722 5720 5718 5715 5713 5710 5707 5705 5704 5701 5696 5692 5689 5685 5681 5677 5674 5671 5668 5664 5660 5655 5652 5648 5645 5642 5639 5637
5693 5703 5712 5718 5722 5724 5726 5726 5727 5728 5727 5725 5722 5720 5717 5714 5712 5711 5709 5707 5705 5702 5699 5696 5695 5693 5689 5685 5682 5678 5673 5669 5666 5662 5659 5656 5652 5649 5645 5641 5638 5635 5632 5630
5686 5696 5704 5711 5713 5715 5718 5721 5721 5721 5721 5719 5717 5714 5710 5706 5704 5702 5700 5698 5696 5693 5690 5688 5687 5684 5682 5678 5674 5669 5665 5661 5658 5655 5652 5648 5645 5641 5639 5636 5633 5630 5627 5624
5679 5690 5690 5696 5704 5708 5709 5710 5711 5711 5711 5712 5711 5707 5704 5700 5697 5694 5692 5691 5689 5687 5684 5682 5680 5677 5675 5672 5668 5663 5658 5654 5651 5647 5644 5641 5637 5635 5633 5631 5629 5625 5622 5619
5682 5688 5688 5693 5697 5700 5700 5702 5703 5703 5703 5702 5702 5700 5697 5693 5689 5687 5685 5683 5681 5680 5677 5674 5672 5669 5667 5665 5661 5657 5653 5648 5644 5641 5637 5634 5631 5629 5626 5625 5623 5620 5617 5614
5678 5680 5680 5684 5686 5690 5692 5694 5695 5695 5695 5694 5693 5691 5688 5685 5682 5680 5678 5677 5675 5672 5669 5667 5664 5662 5660 5658 5655 5651 5647 5644 5640 5635 5632 5629 5626 5623 5620 5618 5616 5614 5612 5608
5671 5673 5673 5677 5679 5681 5683 5684 5683 5683 5685 5684 5683 5682 5679 5676 5674 5673 5672 5670 5668 5664 5661 5659 5657 5655 5654 5651 5648 5645 5641 5638 5634 5631 5627 5624 5620 5617 5615 5612 5610 5607 5605 5603
5662 5665 5667 5667 5668 5671 5673 5674 5674 5675 5676 5676 5675 5673 5672 5670 5668 5666 5665 5663 5659 5656 5654 5652 5650 5649 5648 5646 5642 5639 5636 5634 5630 5626 5622 5618 5615 5612 5609 5607 5604 5601 5599 5597
5651 5653 5656 5657 5659 5662 5664 5667 5668 5668 5668 5668 5667 5667 5666 5664 5661 5660 5658 5657 5654 5651 5648 5646 5644 5644 5642 5640 5638 5635 5632 5629 5626 5622 5617 5614 5611 5608 5605 5601 5598 5596 5594 5592
5648 5649 5651 5651 5653 5655 5658 5660 5661 5661 5661 5661 5660 5659 5658 5657 5655 5654 5653 5651 5648 5645 5643 5641 5640 5639 5637 5634 5632 5629 5626 5623 5619 5616 5612 5609 5606 5603 5600 5597 5594 5591 5589 5587
5643 5644 5646 5647 5649 5650 5651 5652 5654 5655 5654 5654 5653 5652 5651 5651 5650 5649 5647 5644 5642 5639 5638 5638 5636 5634 5632 5630 5627 5623 5620 5617 5614 5611 5608 5604 5601 5598 5595 5592 5589 5587 5584 5582
5637 5639 5641 5643 5645 5645 5646 5647 5648 5648 5648 5647 5646 5645 5645 5644 5644 5643 5641 5639 5638 5637 5635 5633 5631 5629 5628 5625 5622 5618 5615 5612 5609 5606 5603 5600 5596 5593 5590 5587 5584 5582 5579 5576
5630 5632 5634 5637 5639 5641 5641 5642 5641 5641 5641 5642 5640 5639 5639 5639 5638 5637 5635 5633 5634 5633 5631 5628 5626 5625 5623 5620 5617 5613 5610 5607 5604 5601 5598 5595 5591 5588 5585 5582 5579 5577 5574 5571
5623 5625 5628 5631 5633 5634 5635 5635 5635 5635 5635 5635 5634 5634 5633 5632 5632 5631 5630 5629 5629 5627 5625 5624 5622 5620 5618 5614 5611 5608 5605 5602 5599 5596 5592 5589 5585 5582 5579 5576 5573 5571 5568 5565
5617 5620 5623 5625 5627 5628 5629 5630 5630 5629 5629 5629 5628 5628 5628 5627 5627 5625 5624 5625 5623 5621 5620 5619 5617 5614 5612 5609 5606 5603 5600 5597 5593 5590 5587 5583 5580 5577 5574 5571 5568 5566 5563 5560
5612 5615 5618 5621 5622 5622 5622 5623 5624 5624 5624 5624 5624 5624 5623 5622 5621 5621 5621 5619 5618 5617 5614 5612 5610 5608 5606 5603 5600 5597 5594 5591 5588 5585 5582 5579 5575 5572 5569 5567 5564 5561 5558 5555
5608 5610 5613 5614 5615 5616 5617 5618 5618 5618 5619 5619 5619 5620 5619 5619 5617 5616 5615 5614 5613 5611 5608 5606 5604 5602 5599 5597 5595 5592 5588 5585 5582 5579 5577 5574 5571 5568 5565 5561 5559 5556 5553 5550
5603 5605 5607 5609 5611 5612 5613 5613 5612 5612 5613 5613 5614 5614 5614 5614 5613 5611 5610 5609 5607 5605 5602 5600 5597 5595 5592 5591 5589 5586 5582 5579 5577 5574 5571 5568 5566 5563 5560 5557 5553 5550 5547 5544
5600 5601 5603 5604 5606 5608 5608 5608 5608 5608 5609 5609 5609 5609 5609 5609 5608 5606 5605 5603 5601 5598 5596 5594 5592 5589 5586 5584 5582 5579 5577 5574 5571 5568 5566 5563 5560 5557 5554 5551 5548 5544 5541 5538